MMS 3

Last updated on Fri Dec 19 2025 00:02:43 GMT+0000 (Coordinated Universal Time)

1 40484U 15011C 25352.66667824 -.00000535 00000+0 00000+0 0 9992 2 40484 69.3213 351.4801 8500205 163.4638 246.0222 0.28358860 1301
UTC large
Height (km)
Speed (km/s)
/
Latitude / Longitude
Inclination (degrees)
Orbital Period (minutes)
Azimuth
Elevation
Range (km)
Doppler Factor

Next 0 passes for location: London (51.5072 / 0.1276)

Sorry there are no passes over London.